Previous Day
Next Day
Current Day
SHEF ID: LVLO2 Skeleton Creek near Lovell, OK
STATION TYPE:
Regulating: Stage = 38.00, Flow = 12490
PRECIP STAGE RIV-FLOW BAT-LOAD
in ft cfs volt
Ccp-Rev Ccp-Rev Ccp-Rev Ccp-Rev
(US/Central)
07/26 00:00 0.00 8.90 20 12.41
07/26 01:00 0.00 8.90 20 12.40
07/26 02:00 0.00 8.90 20 12.40
07/26 03:00 0.00 8.91 20 12.38
07/26 04:00 0.00 8.91 20 12.38
07/26 05:00 0.00 8.92 20 12.37
07/26 06:00 0.00 8.92 20 12.37
07/26 07:00 0.00 8.92 20 12.36
07/26 08:00 0.00 8.92 20 12.41
07/26 09:00 0.00 8.92 20 12.57
07/26 10:00 0.00 8.92 20 12.87
07/26 11:00 0.00 8.93 21 13.10
07/26 12:00 0.00 8.93 21 12.90
07/26 13:00 0.00 8.92 20 12.84
07/26 14:00 0.00 8.91 20 12.80
07/26 15:00 0.00 8.92 20 12.76
07/26 16:00 0.00 8.90 20 12.73
07/26 17:00 0.00 8.89 19 12.73
07/26 18:00 0.00 8.89 19 12.75
07/26 19:00 0.00 8.87 19 12.74
07/26 20:00 0.00 8.87 19 12.73
07/26 21:00 0.00 8.87 19 12.54
07/26 22:00 0.00 8.88 19 12.46
07/26 23:00 0.00 8.88 19 12.43